Weather in Sherekhovichi

Russia / Novgorod Oblast     58°47′39″N   33°33′19″E
temp.,
°C
wind,
m/s
gust,
m/s
humid.,
%
clouds,
%
prec.,
mm/h
press.,
hPa
HPBL,
m
7 march, sun
sun700:00−5ssw71592100 1.4 9971148
03:00−3sw61494100 2.9 9921098
06:00−2sw61396100 2.2 987960
09:00−5w61271100 4.6 9871664
12:00−5w7125629 0.2 9882546
15:00−5w6115848 0.5 9892080
18:00−7wnw5109168 0.3 989899
21:00−8wnw7149284 1.2 9901267
8 march, mon
mon800:00−7nw71292100 1.3 9911119
03:00−8nnw51091100 1.8 994747
06:00−9nnw41090100 0.1 998665
09:00−10n5988100 0.3 1002616
12:00−10n4885100 0.1 1005636
15:00−10nnw4785100 0.1 1008658
18:00−11n4888100 0.1 1010638
21:00−15n399597 0.1 1014355
9 march, tue
tue900:00−19n259735 0.0 1015123
03:00−22n229617 0.0 101744
06:00−23n22960 0.0 101841
09:00−21n139231 0.0 1020145
12:00−15n23760 0.0 1020471
15:00−13n23690 0.0 1021670
18:00−15nne22900 0.0 102232
21:00−19ene22930 0.0 102420
10 march, wed
wed1000:00−20e22930 0.0 102429
03:00−21e22920 0.0 102529
06:00−22e22920 0.0 102631
09:00−19ese23860 0.0 1027119
12:00−13ese23670 0.0 1027395
15:00−10ese247017 0.0 1027523
18:00−13ese228595 0.0 102633
21:00−16ese258997 0.0 102690
11 march, thu
thu1100:00−17ese2589100 0.0 102696
03:00−18ese368971 0.0 1025136
06:00−18ese410840 0.0 1023223
09:00−15se512730 0.0 1022356
12:00−11se5108755 0.1 1019524
15:00−8se5108777 0.2 1016595
18:00−8se51191100 0.1 1013502
21:00−7sse61494100 0.3 1010552